Regional Weather Roundup
Issued by NWS Upton, NY

Current Version | Previous Version | Text Only | Print | Product List | Glossary On
Versions: 1 2 3 4 5 6 7 8 9 10 11 12 13 14 15 16 17 18 19 20 21 22 23 24 25 26 27
000
ASUS41 KOKX 221508
RWROKX

REGIONAL WEATHER ROUNDUP
NATIONAL WEATHER SERVICE NEW YORK NY
1100 AM EDT SAT APR 22 2017

NOTE: "FAIR" INDICATES FEW OR NO CLOUDS BELOW 12,000 FEET WITH NO
SIGNIFICANT WEATHER AND/OR OBSTRUCTIONS TO VISIBILITY.

NYZ071-072-176-178-NJZ106-104-221600-
NEW YORK CITY METRO AREA

CITY           SKY/WX    TMP DP  RH WIND       PRES   REMARKS
Central Park   CLOUDY    56  47  71 VRB6      29.97R
Wall St Helipt CLOUDY    55  48  76 VRB3      29.96R
Bronx Bot Gard   N/A     54  46  76 E2        29.96R
LaGuardia APRT CLOUDY    54  48  80 NE7       29.94R
Kennedy INTL   CLOUDY    55  49  80 NE7       29.95S
Breezy Point     N/A     52 N/A N/A NE7         N/A
Newark/Liberty CLOUDY    56  46  69 N12       29.94S
Teterboro      DRIZZLE   56  48  74 N6        29.94R
$$

NYZ177-179-078>081-221600-
LONG ISLAND NEW YORK

CITY           SKY/WX    TMP DP  RH WIND       PRES   REMARKS
Jones Beach      N/A     50 N/A N/A NE9         N/A
Matinecock PT  NOT AVBL
Farmingdale    CLOUDY    51  46  83 NE9       29.94F
MacArthur/ISP  CLOUDY    50  46  86 N9        29.93F
Shirley        LGT RAIN  49  46  90 N6        29.94F
Mt Sinai Harb    N/A     46 N/A N/A CALM        N/A
Westhampton    LGT RAIN  49  45  86 NE7       29.96S
East Hampton   CLOUDY    47  44  88 NE6       29.94F
Montauk          N/A     48  45  89 N3        29.95R
$$

NYZ052-065-067-221600-
HUDSON VALLEY

CITY           SKY/WX    TMP DP  RH WIND       PRES   REMARKS
White Plains   LGT RAIN  54  48  80 N3        29.94R
Larchmont Harb   N/A     48 N/A N/A N5          N/A
Croton O-T Hud   N/A     54 N/A N/A CALM        N/A
Newburgh       PTSUNNY   52  48  87 VRB6      29.96R
Montgomery     LGT RAIN  53  47  79 CALM      29.94R
Poughkeepsie   CLOUDY    53  45  74 N7        29.94R
Albany         CLOUDY    49  38  65 NW8       29.97R
$$

NJZ001-105-106-008-010-013-015-019>022-104-221600-
NEW JERSEY

CITY           SKY/WX    TMP DP  RH WIND       PRES   REMARKS
Newark/Liberty CLOUDY    56  46  69 N12       29.94S
Teterboro      DRIZZLE   56  48  74 N6        29.94R
Caldwell       CLOUDY    54  47  77 CALM      29.95S
Somerville     CLOUDY    56  50  80 N5        29.93R
Linden         CLOUDY    57  46  66 CALM      29.94
Sussex         CLOUDY    53  45  74 N5        29.96R
Andover          N/A     52  43  71 MISG      29.96R
Trenton        CLOUDY    56  49  77 NE8       29.92F
Millville      CLOUDY    54  53  97 NE7       29.93R FOG
Atlantic City  CLOUDY    53  50  89 NE7       29.91F
Wrightstown    CLOUDY    54  50  86 N8        29.90F
Toms River     CLOUDY    51  50  96 NE7       29.93S
Belmar         CLOUDY    53  49  86 N9        29.94F
$$

PAZ047>061-062-071-221600-
EASTERN PENNSYLVANIA

CITY           SKY/WX    TMP DP  RH WIND       PRES   REMARKS
Philadelphia   CLOUDY    57  47  69 N9G18     29.94R
Allentown      LGT RAIN  55  44  66 NW8       29.96R
Scranton       LGT RAIN  49  43  80 N9        29.98R
$$

CTZ002-004>006-009-010-012-RIZ004-006-007-MAZ004-011-015-221600-
SOUTHERN NEW ENGLAND
 IN CT

CITY           SKY/WX    TMP DP  RH WIND       PRES   REMARKS
Bradley INTL   CLOUDY    48  44  86 N7        29.96F
Hartford       CLOUDY    49  44  83 N6        29.95S
Danbury        CLOUDY    50  48  93 NE3       29.95R
Wtrbury/Oxford CLOUDY    46  41  81 E6        29.95S
Bridgeport     LGT RAIN  51  45  79 N7        29.94F
Meriden        LGT RAIN  48  44  86 N5        29.94F
New Haven      LGT RAIN  49  44  83 N10       29.95R
Chester        LGT RAIN  48  45  87 N6        29.94R
Groton         LGT RAIN  50  44  80 NE10      29.93R
Wilimantic     LGT RAIN  48  44  86 NE7       29.94F

 IN RI

CITY           SKY/WX    TMP DP  RH WIND       PRES   REMARKS
Providence     LGT RAIN  46  44  93 N16       29.94R
Block Island   LGT RAIN  46  44  93 N9        29.95R
Westerly       LGT RAIN  49  45  86 N7        29.94R
 IN MA

CITY           SKY/WX    TMP DP  RH WIND       PRES   REMARKS
Boston         CLOUDY    44  43  96 N13       29.96F
Worcester      LGT RAIN  39  38  96 NE6       29.92F VSB 1/4 WCI  35
Westfield      CLOUDY    47  43  86 N8        29.95F
Provincetown   CLOUDY    44  43  96 N10       29.92F
Nantucket      CLOUDY    48  45  89 N16       29.86F
$$

ANZ330-335-338-340-345-350-353-355-221600-
COASTAL MARINE OBSERVATIONS


STATION/POSITION TIME  SKY/WX   TEMP    WIND        PRES    VSBY  WAVE
                                AIR SEA DIR/SP/G                  HT/PER
                 (UTC)          (F)     (DEG/KT/KT) (MB)    (MI)  (FT/S)
NY HARB ENTRANCE 1350            50 50   80/  4/  4 1014.2          4/12
20 S FIRE ISLAND 1450            47 47   30/ 10/ 10 1013.2          5/11
GREAT SOUTH BAY  1415            49 56   30/  6/  8   N/A
23 SSW MONTAUK P 1350            45 45              1013.8          6/ 7
15 E BARNEGAT LI 1430               50                N/A           5/11
HUDSON CANYON    1350            47 47   20/ 12/ 14 1012.7          6/11
KINGS POINT      1448            51 46   40/  3/  4 1013.8
EXECUTION ROCKS  NOT AVBL
CENTRAL LI SOUND 1445            47     360/  2/  4   N/A           1
EASTERN LI SOUND NOT AVBL
ROBBINS REEF     1448            54      20/ 10/ 12 1014.2
$$


>>>>>>>>>>>>>>>>>>>>>>>>>>>> KEY <<<<<<<<<<<<<<<<<<<<<<<<<<<
>                                                          <
>     SKY/WX - Sky Condition/Present Weather               <
>     TMP    - Temperature in Fahrenheit                   <
>     DP     - Dew Point in Fahrenheit                     <
>     RH     - Relative Humidity in Percent                <
>     WIND   - Direction (from) and Speed in MPH           <
>     PRES   - Mean Sea Level Pressure (inches of Hg)      <
>     WCI    - Wind Chill Index                            <
>     VSB    - VISIBILITY IN MILES                         <
>     HX     - HEAT INDEX                                  <
>     TC     - TEMPERATURE IN CELSIUS                      <
>     VRB    - VARIABLE WIND DIRECTION                     <
>                                                          <
>>>>>>>>>>>>>>>>>>>>>>>>>>>> KEY <<<<<<<<<<<<<<<<<<<<<<<<<<<




USA.gov is the U.S. government's official web portal to all federal, state and local government web resources and services.